Location: Allens Landing
(37.8284°N, 89.7284°W)
Time: 11:54:38
(UTC+00:00)

Vanguard 2 - Pass Details

Date: 22 December 2025
Orbit: 552 x 2898 km, 32.9° (Epoch: 13 January)

Event Time Altitude Azimuth Distance (km) Brightness Sun altitude
Rises 02:36:59 0° 198° (SSW) 6,185 12.3 -45.1°
Reaches altitude 10° 02:44:09 10° 179° (S) 4,683 11.4 -46.5°
Enters shadow 02:44:30 10° 177° (S) 4,617 11.4 -46.6°
